| time (UTC) | temp F | wind direction | speed MPH | gust MPH | rain 1hr in | rain 24hr in | rain mn in | humidity % | barometer mb |
| 20260904160047 | 85 | 0 | 0.0 | 6.0 | 0.00 | 0.48 | 0.00 | 81 | 1015.7 |
| 20260904155525 | 86 | 223 | 2.0 | 6.0 | 0.00 | 0.48 | 0.00 | 79 | 1015.7 |
| 20260904155024 | 85 | 0 | 0.0 | 5.0 | 0.00 | 0.48 | 0.00 | 83 | 1015.7 |
| 20260904154550 | 85 | 0 | 1.0 | 8.0 | 0.00 | 0.48 | 0.00 | 81 | 1015.9 |
| 20260904154024 | 86 | 126 | 2.0 | 8.0 | 0.00 | 0.48 | 0.00 | 81 | 1015.8 |
| 20260904153525 | 87 | 161 | 3.0 | 9.0 | 0.00 | 0.48 | 0.00 | 82 | 1015.7 |
| 20260904153047 | 86 | 0 | 2.0 | 9.0 | 0.00 | 0.48 | 0.00 | 81 | 1015.6 |
| 20260904152523 | 86 | 126 | 3.0 | 7.0 | 0.00 | 0.48 | 0.00 | 83 | 1015.5 |
| 20260904152022 | 86 | 131 | 1.0 | 6.0 | 0.00 | 0.48 | 0.00 | 83 | 1015.5 |
| 20260904151543 | 86 | 0 | 2.0 | 6.0 | 0.00 | 0.48 | 0.00 | 85 | 1015.5 |
| 20260904151018 | 86 | 288 | 1.0 | 7.0 | 0.00 | 0.48 | 0.00 | 84 | 1015.4 |
| 20260904150519 | 86 | 177 | 2.0 | 7.0 | 0.00 | 0.48 | 0.00 | 85 | 1015.4 |
| 20260904150050 | 85 | 182 | 1.0 | 8.0 | 0.00 | 0.48 | 0.00 | 83 | 1015.2 |
| 20260904145523 | 85 | 171 | 3.0 | 8.0 | 0.00 | 0.48 | 0.00 | 86 | 1015.2 |
| 20260904145023 | 85 | 164 | 1.0 | 6.0 | 0.00 | 0.48 | 0.00 | 87 | 1015.2 |
| 20260904144547 | 85 | 167 | 1.0 | 9.0 | 0.00 | 0.48 | 0.00 | 88 | 1015.2 |
| 20260904144024 | 84 | 153 | 1.0 | 9.0 | 0.00 | 0.48 | 0.00 | 88 | 1015.3 |
| 20260904143528 | 84 | 0 | 1.0 | 7.0 | 0.00 | 0.48 | 0.00 | 87 | 1015.3 |
| 20260904143044 | 83 | 163 | 2.0 | 7.0 | 0.00 | 0.48 | 0.00 | 88 | 1015.2 |
| 20260904142524 | 84 | 0 | 1.0 | 4.0 | 0.00 | 0.48 | 0.00 | 89 | 1015.3 |
| 20260904142024 | 83 | 0 | 0.0 | 7.0 | 0.00 | 0.48 | 0.00 | 88 | 1015.2 |
| 20260904141551 | 83 | 0 | 2.0 | 7.0 | 0.00 | 0.48 | 0.00 | 90 | 1015.2 |
| 20260904141032 | 82 | 171 | 2.0 | 5.0 | 0.00 | 0.48 | 0.00 | 90 | 1015.3 |
| 20260904140527 | 82 | 109 | 1.0 | 5.0 | 0.00 | 0.48 | 0.00 | 91 | 1015.2 |
| 20260904135524 | 82 | 0 | 1.0 | 6.0 | 0.00 | 0.48 | 0.00 | 93 | 1015.3 |
| 20260904135025 | 81 | 85 | 2.0 | 6.0 | 0.00 | 0.48 | 0.00 | 93 | 1015.2 |
| 20260904134609 | 81 | 144 | 2.0 | 6.0 | 0.00 | 0.48 | 0.00 | 93 | 1015.3 |
| 20260904134024 | 81 | 71 | 2.0 | 6.0 | 0.00 | 0.48 | 0.00 | 93 | 1015.2 |
| 20260904133520 | 80 | 167 | 1.0 | 6.0 | 0.00 | 0.48 | 0.00 | 94 | 1015.2 |
| 20260904133046 | 80 | 0 | 2.0 | 6.0 | 0.00 | 0.48 | 0.00 | 95 | 1015.2 |
| 20260904132523 | 80 | 0 | 0.0 | 5.0 | 0.00 | 0.48 | 0.00 | 95 | 1015.1 |
| 20260904132020 | 79 | 143 | 2.0 | 5.0 | 0.00 | 0.48 | 0.00 | 95 | 1015.0 |
| 20260904131541 | 79 | 125 | 1.0 | 4.0 | 0.00 | 0.48 | 0.00 | 96 | 1015.0 |
| 20260904131024 | 79 | 118 | 2.0 | 5.0 | 0.00 | 0.48 | 0.00 | 96 | 1014.9 |
| 20260904130524 | 78 | 120 | 2.0 | 5.0 | 0.00 | 0.48 | 0.00 | 96 | 1015.0 |
| 20260904130048 | 78 | 180 | 1.0 | 4.0 | 0.00 | 0.48 | 0.00 | 97 | 1015.0 |
| 20260904125529 | 78 | 155 | 2.0 | 6.0 | 0.00 | 0.48 | 0.00 | 97 | 1014.9 |
| 20260904125024 | 77 | 124 | 3.0 | 6.0 | 0.00 | 0.48 | 0.00 | 97 | 1014.9 |
| 20260904124543 | 77 | 147 | 2.0 | 5.0 | 0.00 | 0.48 | 0.00 | 97 | 1014.9 |
| 20260904124019 | 77 | 148 | 1.0 | 4.0 | 0.00 | 0.48 | 0.00 | 97 | 1014.9 |
| 20260904123525 | 77 | 130 | 1.0 | 3.0 | 0.00 | 0.48 | 0.00 | 97 | 1014.8 |
| 20260904123041 | 77 | 83 | 1.0 | 4.0 | 0.00 | 0.48 | 0.00 | 97 | 1015.0 |
| 20260904122526 | 76 | 86 | 0.0 | 4.0 | 0.00 | 0.48 | 0.00 | 97 | 1014.9 |
| 20260904122023 | 76 | 0 | 1.0 | 4.0 | 0.00 | 0.48 | 0.00 | 97 | 1014.8 |
| 20260904121552 | 76 | 127 | 2.0 | 4.0 | 0.00 | 0.48 | 0.00 | 97 | 1014.5 |
| 20260904121025 | 76 | 120 | 1.0 | 3.0 | 0.00 | 0.48 | 0.00 | 97 | 1014.5 |
| 20260904120526 | 75 | 105 | 1.0 | 3.0 | 0.00 | 0.48 | 0.00 | 97 | 1014.5 |
| 20260904120050 | 75 | 108 | 1.0 | 2.0 | 0.00 | 0.48 | 0.00 | 97 | 1014.4 |
| 20260904115525 | 75 | 0 | 0.0 | 0.0 | 0.00 | 0.48 | 0.00 | 97 | 1014.4 |
| 20260904115024 | 75 | 0 | 0.0 | 0.0 | 0.00 | 0.48 | 0.00 | 97 | 1014.3 |
| 20260904114544 | 74 | 0 | 0.0 | 0.0 | 0.00 | 0.48 | 0.00 | 97 | 1014.4 |
| 20260904114028 | 74 | 0 | 0.0 | 0.0 | 0.00 | 0.48 | 0.00 | 97 | 1014.3 |
| 20260904113523 | 74 | 0 | 0.0 | 0.0 | 0.00 | 0.48 | 0.00 | 97 | 1014.3 |
| 20260904113042 | 74 | 0 | 0.0 | 0.0 | 0.00 | 0.48 | 0.00 | 97 | 1014.1 |
| 20260904112520 | 74 | 0 | 0.0 | 0.0 | 0.00 | 0.48 | 0.00 | 97 | 1014.1 |
| 20260904112024 | 74 | 0 | 0.0 | 0.0 | 0.00 | 0.48 | 0.00 | 97 | 1014.1 |
| 20260904111543 | 74 | 0 | 0.0 | 0.0 | 0.00 | 0.48 | 0.00 | 97 | 1014.2 |
| 20260904111024 | 74 | 0 | 0.0 | 0.0 | 0.00 | 0.48 | 0.00 | 97 | 1014.2 |
| 20260904110525 | 74 | 0 | 0.0 | 0.0 | 0.00 | 0.48 | 0.00 | 97 | 1014.2 |
| 20260904110047 | 74 | 0 | 0.0 | 0.0 | 0.00 | 0.48 | 0.00 | 97 | 1014.1 |
| 20260904105525 | 74 | 0 | 0.0 | 0.0 | 0.00 | 0.48 | 0.00 | 97 | 1014.1 |
| 20260904105024 | 74 | 0 | 0.0 | 0.0 | 0.00 | 0.48 | 0.00 | 97 | 1014.0 |
| 20260904104544 | 73 | 0 | 0.0 | 0.0 | 0.00 | 0.48 | 0.00 | 97 | 1013.8 |
| 20260904104019 | 73 | 0 | 0.0 | 0.0 | 0.00 | 0.48 | 0.00 | 97 | 1013.8 |
| 20260904103526 | 73 | 0 | 0.0 | 0.0 | 0.00 | 0.48 | 0.00 | 97 | 1013.9 |
| 20260904103041 | 73 | 0 | 0.0 | 0.0 | 0.00 | 0.48 | 0.00 | 97 | 1013.8 |
| 20260904102525 | 73 | 0 | 0.0 | 0.0 | 0.00 | 0.48 | 0.00 | 97 | 1013.8 |
| 20260904102023 | 73 | 0 | 0.0 | 0.0 | 0.00 | 0.48 | 0.00 | 97 | 1013.8 |
| 20260904101539 | 73 | 0 | 0.0 | 0.0 | 0.00 | 0.48 | 0.00 | 97 | 1013.6 |
| 20260904101024 | 73 | 0 | 0.0 | 0.0 | 0.00 | 0.48 | 0.00 | 97 | 1013.6 |
| 20260904100524 | 74 | 0 | 0.0 | 0.0 | 0.00 | 0.48 | 0.00 | 97 | 1013.6 |
| 20260904100049 | 73 | 0 | 0.0 | 0.0 | 0.00 | 0.48 | 0.00 | 97 | 1013.6 |
| 20260904095524 | 74 | 0 | 0.0 | 0.0 | 0.00 | 0.48 | 0.00 | 96 | 1013.6 |
| 20260904095021 | 74 | 0 | 0.0 | 0.0 | 0.00 | 0.48 | 0.00 | 97 | 1013.6 |
| 20260904094552 | 74 | 0 | 0.0 | 0.0 | 0.00 | 0.48 | 0.00 | 96 | 1013.5 |
| 20260904094019 | 74 | 0 | 0.0 | 0.0 | 0.00 | 0.48 | 0.00 | 97 | 1013.5 |
| 20260904093519 | 74 | 0 | 0.0 | 0.0 | 0.00 | 0.48 | 0.00 | 96 | 1013.4 |
| 20260904093039 | 74 | 0 | 0.0 | 0.0 | 0.00 | 0.48 | 0.00 | 96 | 1013.5 |
| 20260904092525 | 74 | 0 | 0.0 | 0.0 | 0.00 | 0.48 | 0.00 | 96 | 1013.5 |
| 20260904092024 | 74 | 0 | 0.0 | 0.0 | 0.00 | 0.48 | 0.00 | 96 | 1013.4 |
| 20260904091547 | 74 | 0 | 0.0 | 0.0 | 0.00 | 0.48 | 0.00 | 96 | 1013.4 |
| 20260904091021 | 74 | 0 | 0.0 | 0.0 | 0.00 | 0.48 | 0.00 | 96 | 1013.3 |
| 20260904090521 | 74 | 0 | 0.0 | 0.0 | 0.00 | 0.48 | 0.00 | 96 | 1013.3 |
| 20260904090053 | 74 | 0 | 0.0 | 0.0 | 0.00 | 0.48 | 0.00 | 96 | 1013.3 |
| 20260904085523 | 74 | 0 | 0.0 | 0.0 | 0.00 | 0.48 | 0.00 | 96 | 1013.5 |
| 20260904085024 | 74 | 0 | 0.0 | 0.0 | 0.00 | 0.48 | 0.00 | 96 | 1013.4 |
| 20260904084546 | 74 | 0 | 0.0 | 0.0 | 0.00 | 0.48 | 0.00 | 96 | 1013.3 |
| 20260904084025 | 74 | 0 | 0.0 | 0.0 | 0.00 | 0.48 | 0.00 | 96 | 1013.3 |
| 20260904083526 | 74 | 0 | 0.0 | 0.0 | 0.00 | 0.48 | 0.00 | 96 | 1013.3 |
| 20260904083123 | 74 | 0 | 0.0 | 0.0 | 0.00 | 0.48 | 0.00 | 96 | 1013.2 |
| 20260904082524 | 74 | 0 | 0.0 | 0.0 | 0.00 | 0.48 | 0.00 | 96 | 1013.3 |
| 20260904082023 | 74 | 0 | 0.0 | 0.0 | 0.00 | 0.48 | 0.00 | 96 | 1013.3 |
| 20260904081543 | 74 | 0 | 0.0 | 0.0 | 0.00 | 0.48 | 0.00 | 96 | 1013.3 |
| 20260904081023 | 74 | 0 | 0.0 | 0.0 | 0.00 | 0.48 | 0.00 | 96 | 1013.3 |
| 20260904080521 | 74 | 0 | 0.0 | 0.0 | 0.00 | 0.48 | 0.00 | 96 | 1013.3 |
| 20260904080045 | 74 | 0 | 0.0 | 0.0 | 0.00 | 0.48 | 0.00 | 96 | 1013.3 |
| 20260904075522 | 74 | 0 | 0.0 | 0.0 | 0.00 | 0.48 | 0.00 | 96 | 1013.3 |
| 20260904075027 | 74 | 0 | 0.0 | 0.0 | 0.00 | 0.48 | 0.00 | 96 | 1013.2 |
| 20260904074541 | 74 | 0 | 0.0 | 0.0 | 0.00 | 0.48 | 0.00 | 96 | 1013.3 |
| 20260904074025 | 74 | 0 | 0.0 | 0.0 | 0.00 | 0.48 | 0.00 | 96 | 1013.3 |
| 20260904073524 | 74 | 0 | 0.0 | 0.0 | 0.00 | 0.48 | 0.00 | 96 | 1013.2 |
| 20260904073040 | 74 | 0 | 0.0 | 0.0 | 0.00 | 0.48 | 0.00 | 96 | 1013.2 |
| 20260904072523 | 74 | 0 | 0.0 | 0.0 | 0.00 | 0.48 | 0.00 | 96 | 1013.2 |
| 20260904072030 | 74 | 0 | 0.0 | 0.0 | 0.00 | 0.48 | 0.00 | 96 | 1013.3 |
| 20260904071601 | 74 | 0 | 0.0 | 0.0 | 0.00 | 0.48 | 0.00 | 96 | 1013.1 |
| 20260904071020 | 74 | 0 | 0.0 | 0.0 | 0.00 | 0.48 | 0.00 | 96 | 1013.1 |
| 20260904070524 | 74 | 0 | 0.0 | 0.0 | 0.00 | 0.48 | 0.00 | 96 | 1013.2 |
| 20260904070108 | 74 | 0 | 0.0 | 0.0 | 0.00 | 0.48 | 0.00 | 96 | 1013.1 |
| 20260904065521 | 74 | 0 | 0.0 | 0.0 | 0.00 | 0.48 | 0.00 | 96 | 1013.3 |
| 20260904065028 | 74 | 0 | 0.0 | 0.0 | 0.00 | 0.48 | 0.00 | 96 | 1013.3 |
| 20260904064550 | 74 | 0 | 0.0 | 0.0 | 0.00 | 0.48 | 0.00 | 96 | 1013.1 |
| 20260904064021 | 74 | 0 | 0.0 | 0.0 | 0.00 | 0.48 | 0.00 | 96 | 1013.1 |
| 20260904063524 | 75 | 0 | 0.0 | 0.0 | 0.00 | 0.48 | 0.00 | 96 | 1013.1 |
| 20260904063100 | 75 | 0 | 0.0 | 0.0 | 0.00 | 0.48 | 0.00 | 96 | 1013.2 |
| 20260904062524 | 75 | 0 | 0.0 | 0.0 | 0.00 | 0.48 | 0.00 | 96 | 1013.3 |
| 20260904062019 | 75 | 0 | 0.0 | 0.0 | 0.00 | 0.48 | 0.00 | 96 | 1013.4 |
| 20260904061542 | 75 | 0 | 0.0 | 0.0 | 0.00 | 0.48 | 0.00 | 96 | 1013.6 |
| 20260904061019 | 75 | 0 | 0.0 | 0.0 | 0.00 | 0.48 | 0.00 | 96 | 1013.6 |
| 20260904060522 | 75 | 0 | 0.0 | 0.0 | 0.00 | 0.48 | 0.00 | 96 | 1013.7 |
| 20260904060042 | 75 | 0 | 0.0 | 0.0 | 0.00 | 0.48 | 0.00 | 96 | 1013.6 |
| 20260904055525 | 75 | 0 | 0.0 | 0.0 | 0.00 | 0.48 | 0.00 | 96 | 1013.7 |
| 20260904055025 | 75 | 0 | 0.0 | 0.0 | 0.00 | 0.48 | 0.00 | 96 | 1013.7 |
| 20260904054551 | 75 | 0 | 0.0 | 2.0 | 0.00 | 0.48 | 0.00 | 96 | 1013.9 |
| 20260904054023 | 75 | 0 | 0.0 | 2.0 | 0.00 | 0.48 | 0.00 | 96 | 1013.9 |
| 20260904053522 | 75 | 0 | 0.0 | 2.0 | 0.00 | 0.48 | 0.00 | 96 | 1013.8 |
| 20260904053055 | 75 | 0 | 0.0 | 0.0 | 0.00 | 0.48 | 0.00 | 96 | 1013.9 |
| 20260904052523 | 75 | 0 | 0.0 | 0.0 | 0.00 | 0.48 | 0.00 | 96 | 1013.9 |
| 20260904052022 | 75 | 0 | 0.0 | 0.0 | 0.00 | 0.48 | 0.00 | 96 | 1014.0 |
| 20260904051544 | 75 | 0 | 0.0 | 0.0 | 0.00 | 0.48 | 0.00 | 96 | 1014.0 |
| 20260904051023 | 75 | 0 | 0.0 | 0.0 | 0.00 | 0.48 | 0.00 | 96 | 1013.9 |
| 20260904050521 | 75 | 0 | 0.0 | 0.0 | 0.00 | 0.48 | 0.00 | 96 | 1014.1 |
| 20260904050049 | 75 | 0 | 0.0 | 0.0 | 0.00 | 0.48 | 0.00 | 96 | 1014.1 |
| 20260904045525 | 75 | 0 | 0.0 | 0.0 | 0.00 | 0.49 | 0.00 | 96 | 1014.1 |
| 20260904045025 | 75 | 0 | 0.0 | 0.0 | 0.00 | 0.49 | 0.00 | 96 | 1014.1 |
| 20260904044546 | 75 | 0 | 0.0 | 0.0 | 0.00 | 0.49 | 0.00 | 96 | 1014.1 |
| 20260904044023 | 75 | 0 | 0.0 | 0.0 | 0.00 | 0.49 | 0.00 | 96 | 1014.1 |
| 20260904043519 | 75 | 0 | 0.0 | 0.0 | 0.00 | 0.49 | 0.00 | 96 | 1014.1 |
| 20260904043056 | 75 | 0 | 0.0 | 0.0 | 0.00 | 0.49 | 0.00 | 96 | 1014.1 |
| 20260904042525 | 75 | 0 | 0.0 | 0.0 | 0.00 | 0.49 | 0.00 | 96 | 1014.1 |
| 20260904042024 | 75 | 0 | 0.0 | 0.0 | 0.00 | 0.49 | 0.00 | 96 | 1014.1 |
| 20260904041546 | 75 | 0 | 0.0 | 0.0 | 0.00 | 0.49 | 0.00 | 96 | 1014.2 |
| 20260904041021 | 75 | 0 | 0.0 | 0.0 | 0.00 | 0.49 | 0.00 | 96 | 1014.1 |
| 20260904040522 | 75 | 0 | 0.0 | 2.0 | 0.00 | 0.49 | 0.00 | 96 | 1014.1 |
| 20260904035525 | 75 | 0 | 0.0 | 3.0 | 0.00 | 0.49 | 0.49 | 96 | 1014.1 |
| 20260904035022 | 75 | 101 | 1.0 | 3.0 | 0.00 | 0.49 | 0.49 | 96 | 1013.9 |
| 20260904034541 | 75 | 99 | 1.0 | 3.0 | 0.00 | 0.49 | 0.49 | 96 | 1014.0 |
| 20260904034019 | 75 | 109 | 1.0 | 3.0 | 0.00 | 0.49 | 0.49 | 96 | 1014.1 |
| 20260904033520 | 76 | 102 | 0.0 | 3.0 | 0.00 | 0.49 | 0.49 | 96 | 1014.1 |
| 20260904033044 | 76 | 0 | 0.0 | 0.0 | 0.00 | 0.49 | 0.49 | 96 | 1014.1 |
| 20260904032523 | 76 | 0 | 0.0 | 0.0 | 0.00 | 0.49 | 0.49 | 96 | 1014.1 |
| 20260904032021 | 76 | 0 | 0.0 | 1.0 | 0.00 | 0.49 | 0.49 | 96 | 1014.1 |
| 20260904031552 | 76 | 0 | 0.0 | 2.0 | 0.00 | 0.49 | 0.49 | 96 | 1014.1 |
| 20260904031024 | 76 | 0 | 0.0 | 2.0 | 0.00 | 0.49 | 0.49 | 96 | 1014.2 |
| 20260904030524 | 76 | 0 | 0.0 | 2.0 | 0.00 | 0.49 | 0.49 | 96 | 1014.2 |
| 20260904030043 | 76 | 0 | 0.0 | 3.0 | 0.00 | 0.49 | 0.49 | 96 | 1014.1 |
| 20260904025524 | 76 | 118 | 1.0 | 3.0 | 0.00 | 0.49 | 0.49 | 96 | 1014.1 |
| 20260904025022 | 76 | 136 | 1.0 | 3.0 | 0.00 | 0.49 | 0.49 | 96 | 1014.1 |
| 20260904024554 | 76 | 101 | 1.0 | 3.0 | 0.00 | 0.49 | 0.49 | 96 | 1014.1 |
| 20260904024018 | 76 | 107 | 1.0 | 5.0 | 0.00 | 0.49 | 0.49 | 96 | 1014.1 |
| 20260904023524 | 76 | 128 | 2.0 | 5.0 | 0.01 | 0.49 | 0.49 | 96 | 1014.0 |
| 20260904023049 | 76 | 121 | 2.0 | 4.0 | 0.01 | 0.49 | 0.49 | 96 | 1014.0 |
| 20260904022525 | 76 | 96 | 2.0 | 5.0 | 0.01 | 0.49 | 0.49 | 96 | 1013.9 |
| 20260904022024 | 76 | 0 | 1.0 | 5.0 | 0.01 | 0.49 | 0.49 | 96 | 1013.9 |
| 20260904021547 | 76 | 119 | 2.0 | 5.0 | 0.01 | 0.49 | 0.49 | 96 | 1013.8 |
| 20260904021024 | 76 | 115 | 1.0 | 3.0 | 0.01 | 0.49 | 0.49 | 96 | 1013.9 |
| 20260904020524 | 76 | 74 | 1.0 | 3.0 | 0.01 | 0.49 | 0.49 | 96 | 1013.8 |
| 20260904020046 | 76 | 82 | 1.0 | 3.0 | 0.01 | 0.49 | 0.49 | 96 | 1013.7 |
| 20260904015524 | 76 | 108 | 1.0 | 3.0 | 0.02 | 0.52 | 0.49 | 96 | 1013.8 |
| 20260904015022 | 76 | 0 | 1.0 | 4.0 | 0.02 | 0.52 | 0.49 | 96 | 1013.7 |
| 20260904014557 | 76 | 109 | 1.0 | 4.0 | 0.03 | 0.52 | 0.49 | 96 | 1013.7 |
| 20260904014025 | 76 | 108 | 1.0 | 3.0 | 0.03 | 0.52 | 0.49 | 96 | 1013.7 |
| 20260904013525 | 76 | 120 | 0.0 | 3.0 | 0.03 | 0.51 | 0.48 | 96 | 1013.7 |
| 20260904013048 | 76 | 76 | 1.0 | 3.0 | 0.03 | 0.51 | 0.48 | 96 | 1013.7 |
| 20260904012524 | 76 | 69 | 1.0 | 3.0 | 0.03 | 0.51 | 0.48 | 96 | 1013.7 |
| 20260904012024 | 76 | 91 | 1.0 | 4.0 | 0.03 | 0.51 | 0.48 | 96 | 1013.6 |
| 20260904011546 | 76 | 65 | 2.0 | 4.0 | 0.03 | 0.51 | 0.48 | 95 | 1013.4 |
| 20260904011024 | 76 | 93 | 2.0 | 3.0 | 0.04 | 0.51 | 0.48 | 95 | 1013.4 |
| 20260904010524 | 76 | 98 | 1.0 | 3.0 | 0.05 | 0.51 | 0.48 | 95 | 1013.4 |
| 20260904010050 | 76 | 98 | 1.0 | 3.0 | 0.06 | 0.51 | 0.48 | 95 | 1013.4 |
| 20260904005523 | 76 | 79 | 1.0 | 3.0 | 0.11 | 0.50 | 0.47 | 95 | 1013.3 |
| 20260904005024 | 76 | 0 | 0.0 | 2.0 | 0.21 | 0.49 | 0.46 | 95 | 1013.3 |
| 20260904004544 | 77 | 0 | 0.0 | 1.0 | 0.30 | 0.49 | 0.46 | 95 | 1013.4 |
| 20260904004023 | 76 | 0 | 0.0 | 1.0 | 0.45 | 0.49 | 0.46 | 95 | 1013.4 |
| 20260904003520 | 76 | 0 | 0.0 | 3.0 | 0.44 | 0.48 | 0.45 | 95 | 1013.4 |
| 20260904003043 | 76 | 89 | 0.0 | 4.0 | 0.44 | 0.48 | 0.45 | 95 | 1013.3 |
| 20260904002524 | 76 | 109 | 1.0 | 4.0 | 0.44 | 0.48 | 0.45 | 95 | 1013.4 |
| 20260904002026 | 76 | 123 | 0.0 | 7.0 | 0.44 | 0.48 | 0.45 | 95 | 1013.5 |
| 20260904001551 | 76 | 100 | 1.0 | 7.0 | 0.43 | 0.47 | 0.44 | 94 | 1013.5 |
| 20260904001024 | 76 | 116 | 2.0 | 7.0 | 0.43 | 0.47 | 0.44 | 94 | 1013.6 |
| 20260904000524 | 76 | 155 | 2.0 | 10.0 | 0.42 | 0.46 | 0.43 | 94 | 1013.6 |
| 20260904000052 | 76 | 202 | 4.0 | 10.0 | 0.40 | 0.44 | 0.41 | 93 | 1013.6 |
| 20260903235526 | 77 | 142 | 3.0 | 10.0 | 0.34 | 0.38 | 0.35 | 92 | 1013.7 |
| 20260903235024 | 77 | 167 | 1.0 | 10.0 | 0.23 | 0.27 | 0.24 | 91 | 1013.8 |
| 20260903234541 | 79 | 301 | 2.0 | 18.0 | 0.13 | 0.17 | 0.14 | 89 | 1013.8 |
| 20260903234025 | 81 | 104 | 9.0 | 18.0 | 0.00 | 0.04 | 0.01 | 85 | 1013.8 |
| 20260903233529 | 82 | 132 | 6.0 | 13.0 | 0.00 | 0.04 | 0.01 | 85 | 1013.7 |
| 20260903233041 | 83 | 80 | 3.0 | 8.0 | 0.00 | 0.04 | 0.01 | 87 | 1013.3 |
| 20260903232524 | 83 | 112 | 3.0 | 9.0 | 0.00 | 0.04 | 0.01 | 86 | 1013.2 |
| 20260903232024 | 83 | 78 | 3.0 | 10.0 | 0.00 | 0.04 | 0.01 | 85 | 1013.1 |
| 20260903231548 | 83 | 84 | 4.0 | 10.0 | 0.00 | 0.04 | 0.01 | 85 | 1013.0 |
| 20260903231024 | 83 | 83 | 5.0 | 9.0 | 0.00 | 0.04 | 0.01 | 85 | 1013.0 |
| 20260903230521 | 84 | 80 | 4.0 | 9.0 | 0.00 | 0.04 | 0.01 | 85 | 1013.1 |
| 20260903230047 | 84 | 115 | 3.0 | 7.0 | 0.00 | 0.04 | 0.01 | 84 | 1013.1 |
| 20260903225524 | 84 | 67 | 4.0 | 8.0 | 0.00 | 0.04 | 0.01 | 83 | 1013.0 |
| 20260903225024 | 84 | 61 | 4.0 | 8.0 | 0.00 | 0.04 | 0.01 | 82 | 1012.8 |
| 20260903224540 | 85 | 114 | 3.0 | 8.0 | 0.00 | 0.04 | 0.01 | 82 | 1012.8 |
| 20260903224024 | 85 | 83 | 3.0 | 7.0 | 0.00 | 0.04 | 0.01 | 80 | 1012.5 |
| 20260903223524 | 85 | 78 | 2.0 | 4.0 | 0.00 | 0.04 | 0.01 | 79 | 1012.7 |
| 20260903223043 | 86 | 82 | 1.0 | 4.0 | 0.00 | 0.04 | 0.01 | 79 | 1012.7 |
| 20260903222522 | 86 | 74 | 1.0 | 4.0 | 0.00 | 0.04 | 0.01 | 78 | 1012.7 |
| 20260903222024 | 86 | 55 | 2.0 | 4.0 | 0.00 | 0.04 | 0.01 | 77 | 1012.5 |
| 20260903221542 | 86 | 64 | 1.0 | 4.0 | 0.00 | 0.04 | 0.01 | 79 | 1012.4 |
| 20260903221018 | 86 | 67 | 1.0 | 4.0 | 0.00 | 0.04 | 0.01 | 77 | 1012.4 |
| 20260903220524 | 86 | 59 | 1.0 | 4.0 | 0.00 | 0.04 | 0.01 | 77 | 1012.4 |
| 20260903220051 | 87 | 71 | 2.0 | 4.0 | 0.00 | 0.04 | 0.01 | 76 | 1012.4 |
| 20260903215525 | 86 | 77 | 2.0 | 5.0 | 0.00 | 0.04 | 0.01 | 77 | 1012.2 |
| 20260903215025 | 86 | 82 | 2.0 | 5.0 | 0.00 | 0.04 | 0.01 | 79 | 1012.4 |
| 20260903214604 | 86 | 59 | 2.0 | 6.0 | 0.00 | 0.04 | 0.01 | 79 | 1012.4 |
| 20260903214024 | 86 | 69 | 2.0 | 8.0 | 0.00 | 0.04 | 0.01 | 79 | 1012.3 |
| 20260903213523 | 87 | 63 | 3.0 | 8.0 | 0.00 | 0.04 | 0.01 | 79 | 1012.1 |
| 20260903213047 | 87 | 56 | 3.0 | 8.0 | 0.00 | 0.04 | 0.01 | 79 | 1011.8 |
| 20260903212528 | 86 | 112 | 4.0 | 8.0 | 0.00 | 0.04 | 0.01 | 78 | 1011.8 |
| 20260903212024 | 87 | 53 | 3.0 | 8.0 | 0.00 | 0.04 | 0.01 | 78 | 1011.8 |
| 20260903211542 | 87 | 76 | 4.0 | 8.0 | 0.00 | 0.04 | 0.01 | 76 | 1011.8 |
| 20260903211025 | 86 | 38 | 3.0 | 7.0 | 0.00 | 0.04 | 0.01 | 79 | 1011.8 |
| 20260903210525 | 87 | 88 | 2.0 | 6.0 | 0.00 | 0.04 | 0.01 | 79 | 1011.6 |
| 20260903210048 | 86 | 96 | 1.0 | 6.0 | 0.00 | 0.04 | 0.01 | 79 | 1011.7 |
| 20260903205523 | 86 | 99 | 3.0 | 5.0 | 0.00 | 0.04 | 0.01 | 79 | 1011.8 |
| 20260903205022 | 87 | 72 | 2.0 | 4.0 | 0.00 | 0.04 | 0.01 | 81 | 1011.9 |
| 20260903204542 | 87 | 59 | 2.0 | 6.0 | 0.00 | 0.04 | 0.01 | 81 | 1012.0 |
| 20260903204023 | 87 | 74 | 1.0 | 7.0 | 0.00 | 0.04 | 0.01 | 82 | 1012.1 |
| 20260903203526 | 87 | 0 | 2.0 | 7.0 | 0.00 | 0.04 | 0.01 | 82 | 1011.9 |
| 20260903203042 | 87 | 121 | 2.0 | 5.0 | 0.00 | 0.04 | 0.01 | 80 | 1011.9 |
| 20260903202526 | 86 | 98 | 2.0 | 4.0 | 0.00 | 0.04 | 0.01 | 85 | 1012.1 |
| 20260903202023 | 85 | 107 | 2.0 | 6.0 | 0.00 | 0.04 | 0.01 | 83 | 1012.3 |
| 20260903201558 | 85 | 105 | 3.0 | 6.0 | 0.00 | 0.04 | 0.01 | 84 | 1012.4 |
| 20260903201027 | 85 | 101 | 2.0 | 5.0 | 0.00 | 0.04 | 0.01 | 84 | 1012.5 |
| 20260903200526 | 84 | 113 | 2.0 | 8.0 | 0.00 | 0.04 | 0.01 | 85 | 1012.4 |
| 20260903200051 | 84 | 110 | 3.0 | 8.0 | 0.00 | 0.04 | 0.01 | 86 | 1012.6 |
| 20260903195523 | 84 | 109 | 4.0 | 7.0 | 0.00 | 0.04 | 0.01 | 85 | 1012.7 |
| 20260903195029 | 84 | 65 | 3.0 | 7.0 | 0.00 | 0.04 | 0.01 | 85 | 1012.7 |
| 20260903194542 | 84 | 123 | 2.0 | 8.0 | 0.00 | 0.04 | 0.01 | 87 | 1012.8 |
| 20260903194023 | 83 | 55 | 4.0 | 9.0 | 0.00 | 0.04 | 0.01 | 88 | 1013.0 |
| 20260903193525 | 83 | 78 | 5.0 | 9.0 | 0.00 | 0.04 | 0.01 | 87 | 1013.1 |
| 20260903193049 | 83 | 91 | 3.0 | 7.0 | 0.00 | 0.04 | 0.01 | 90 | 1013.3 |
| 20260903192530 | 83 | 82 | 3.0 | 7.0 | 0.00 | 0.04 | 0.01 | 90 | 1013.3 |
| 20260903192025 | 83 | 40 | 3.0 | 7.0 | 0.00 | 0.04 | 0.01 | 89 | 1013.6 |
| 20260903191549 | 82 | 95 | 3.0 | 7.0 | 0.00 | 0.04 | 0.01 | 89 | 1013.6 |
| 20260903191024 | 83 | 83 | 2.0 | 7.0 | 0.00 | 0.04 | 0.01 | 89 | 1013.6 |
| 20260903190524 | 82 | 100 | 3.0 | 6.0 | 0.00 | 0.04 | 0.01 | 92 | 1013.7 |
| 20260903190044 | 81 | 83 | 2.0 | 6.0 | 0.00 | 0.04 | 0.01 | 92 | 1013.8 |
| 20260903185522 | 80 | 94 | 2.0 | 7.0 | 0.00 | 0.04 | 0.01 | 92 | 1013.7 |
| 20260903185024 | 80 | 104 | 3.0 | 7.0 | 0.00 | 0.04 | 0.01 | 91 | 1013.7 |
| 20260903184551 | 80 | 157 | 3.0 | 8.0 | 0.00 | 0.04 | 0.01 | 90 | 1013.7 |
| 20260903184027 | 80 | 115 | 2.0 | 8.0 | 0.00 | 0.04 | 0.01 | 90 | 1013.6 |
| 20260903183524 | 80 | 124 | 3.0 | 10.0 | 0.00 | 0.04 | 0.01 | 89 | 1013.6 |
| 20260903183050 | 80 | 137 | 2.0 | 10.0 | 0.00 | 0.04 | 0.01 | 88 | 1013.6 |
| 20260903182524 | 81 | 154 | 4.0 | 10.0 | 0.00 | 0.04 | 0.01 | 88 | 1013.7 |
| 20260903182025 | 81 | 107 | 3.0 | 6.0 | 0.00 | 0.04 | 0.01 | 89 | 1013.6 |
| 20260903181547 | 81 | 92 | 2.0 | 7.0 | 0.00 | 0.04 | 0.01 | 89 | 1013.6 |
| 20260903181026 | 81 | 79 | 2.0 | 7.0 | 0.00 | 0.04 | 0.01 | 88 | 1013.6 |
| 20260903180529 | 81 | 80 | 4.0 | 7.0 | 0.00 | 0.04 | 0.01 | 88 | 1013.5 |
| 20260903180047 | 81 | 74 | 2.0 | 5.0 | 0.00 | 0.04 | 0.01 | 87 | 1013.6 |
| 20260903175520 | 82 | 80 | 2.0 | 8.0 | 0.00 | 0.04 | 0.01 | 87 | 1013.7 |
| 20260903175023 | 81 | 96 | 2.0 | 8.0 | 0.00 | 0.04 | 0.01 | 87 | 1013.8 |
| 20260903174542 | 82 | 98 | 2.0 | 8.0 | 0.00 | 0.04 | 0.01 | 87 | 1014.0 |
| 20260903174022 | 82 | 121 | 3.0 | 8.0 | 0.00 | 0.04 | 0.01 | 86 | 1014.2 |
| 20260903173525 | 82 | 119 | 4.0 | 8.0 | 0.00 | 0.04 | 0.01 | 86 | 1014.3 |
| 20260903173043 | 83 | 109 | 3.0 | 6.0 | 0.00 | 0.04 | 0.01 | 87 | 1014.4 |
| 20260903172528 | 83 | 84 | 3.0 | 6.0 | 0.00 | 0.04 | 0.01 | 86 | 1014.4 |
| 20260903172026 | 83 | 80 | 2.0 | 8.0 | 0.00 | 0.04 | 0.01 | 86 | 1014.4 |
| 20260903171545 | 83 | 80 | 3.0 | 8.0 | 0.00 | 0.04 | 0.01 | 86 | 1014.3 |
| 20260903171025 | 83 | 107 | 3.0 | 8.0 | 0.00 | 0.04 | 0.01 | 86 | 1014.5 |
| 20260903170524 | 84 | 85 | 5.0 | 9.0 | 0.00 | 0.04 | 0.01 | 85 | 1014.6 |
| 20260903170052 | 84 | 90 | 5.0 | 9.0 | 0.00 | 0.04 | 0.01 | 85 | 1014.6 |
| 20260903165526 | 84 | 77 | 5.0 | 11.0 | 0.00 | 0.04 | 0.01 | 83 | 1014.5 |
| 20260903165025 | 84 | 65 | 5.0 | 11.0 | 0.00 | 0.04 | 0.01 | 84 | 1014.5 |
| 20260903164549 | 85 | 64 | 4.0 | 9.0 | 0.00 | 0.04 | 0.01 | 84 | 1014.6 |
| 20260903164025 | 85 | 63 | 5.0 | 10.0 | 0.00 | 0.04 | 0.01 | 83 | 1014.6 |
| 20260903163527 | 85 | 76 | 4.0 | 10.0 | 0.00 | 0.04 | 0.01 | 83 | 1014.6 |
| 20260903163101 | 86 | 76 | 4.0 | 11.0 | 0.00 | 0.04 | 0.01 | 80 | 1014.7 |
| 20260903162523 | 86 | 32 | 4.0 | 11.0 | 0.00 | 0.04 | 0.01 | 83 | 1014.7 |
| 20260903162025 | 85 | 62 | 7.0 | 11.0 | 0.00 | 0.04 | 0.01 | 82 | 1014.6 |
| 20260903161543 | 85 | 89 | 6.0 | 10.0 | 0.00 | 0.04 | 0.01 | 79 | 1014.7 |
| 20260903161023 | 85 | 80 | 3.0 | 10.0 | 0.00 | 0.04 | 0.01 | 81 | 1014.7 |
| 20260903160526 | 87 | 76 | 2.0 | 10.0 | 0.00 | 0.04 | 0.01 | 81 | 1014.6 |